Location: Avully
(45.9633°N, 6.0228°E)
Time: 14:48:01
(UTC+00:00)

Cosmos 968 Rocket - Pass Details

Date: 23 May 2024
Orbit: 738 x 769 km, 74.0° (Epoch: 16 June)

Event Time Altitude Azimuth Distance (km) Brightness Sun altitude
Exits shadow 02:02:13 24° 208° (SSW) 1,492 4.4 -15.3°
Maximum altitude 02:05:18 79° 292° (WNW) 760 3.4 -14.9°
Drops below altitude 10° 02:10:27 10° 19° (NNE) 2,268 7.2 -14.4°
Sets 02:12:50 0° 21° (NNE) 3,201 8.3 -14.2°
